Jerez de la Frontera, Spain

9:47 AM CEST on May 27, 2017 (GMT +0200)
Jerez

Weather History for LEJR - October, 2012

Change the Weather History Date:

Sunday, October 14, 2012

  Actual Average Record
Temperature  
Mean Temperature 66 °F -  
Max Temperature 77 °F 70 °F 89 °F (2011)
Min Temperature 56 °F 51 °F 46 °F (2000)
Cooling Degree Days 2    
Growing Degree Days 16 (Base 50)    
Moisture  
Dew Point 57 °F    
Average Humidity 72    
Maximum Humidity 100    
Minimum Humidity 41    
Precipitation  
Precipitation 0.00 in 0.11 in - ()
Sea Level Pressure  
Sea Level Pressure 29.91 in    
Wind  
Wind Speed 5 mph ()    
Max Wind Speed 15 mph    
Max Gust Speed -    
Visibility 6.5 miles    
Events      
Averages and records for this station are not official NWS values.
T = Trace of Precipitation, MM = Missing Value Source: Averaged Metar Reports

Daily Weather History Graph

Daily Weather History Graph

Search for Another Location

Airport or City:

Trip Planner

Search our weather history database for the weather conditions in past years. The results will help you decide how hot, cold, wet, or windy it might be!

Date:

Astronomy

Oct. 14, 2012 Rise Set
Actual Time 8:31 AM CEST 7:48 PM CEST
Civil Twilight 8:05 AM CEST 8:14 PM CEST
Nautical Twilight 7:34 AM CEST 8:44 PM CEST
Astronomical Twilight 7:04 AM CEST 9:14 PM CEST
Moon 7:14 AM CEST (10/14) 6:59 PM CEST (10/14)
Length of Visible Light 12h 09m
Length of Day
11h 17m
Waning Crescent, 2% of the Moon is Illuminated
Oct 14
Waning Crescent
Oct 15
New
Oct 22
First Quarter
Oct 29
Full
Nov 7
Last Quarter

Hourly Weather History & Observations

Time (CEST) Temp. Dew Point Humidity Pressure Visibility Wind Dir Wind Speed Gust Speed Precip Events Conditions
5:00 AM 59.0 °F 57.2 °F 94% 29.95 in 6.2 mi Calm Calm - N/A   Partly Cloudy
5:30 AM 59.0 °F 57.2 °F 94% 29.95 in 6.2 mi Calm Calm - N/A   Partly Cloudy
6:00 AM 59.0 °F 57.2 °F 94% 29.92 in 6.2 mi Variable 1.2 mph - N/A   Partly Cloudy
6:30 AM 57.2 °F 57.2 °F 100% 29.92 in 6.2 mi Variable 2.3 mph - N/A   Partly Cloudy
7:00 AM 57.2 °F 57.2 °F 100% 29.92 in 6.2 mi Variable 1.2 mph - N/A   Partly Cloudy
7:30 AM 57.2 °F 57.2 °F 100% 29.92 in 6.2 mi Calm Calm - N/A   Partly Cloudy
8:00 AM 56 °F 55 °F 97% 29.95 in 19 mi ENE 2.3 mph - -   Scattered Clouds
8:00 AM 57.2 °F 55.4 °F 94% 29.92 in 6.2 mi Variable 1.2 mph - N/A   Partly Cloudy
8:30 AM 57.2 °F 55.4 °F 94% 29.95 in 6.2 mi Variable 1.2 mph - N/A   Partly Cloudy
9:00 AM 57.2 °F 57.2 °F 100% 29.95 in 6.2 mi Variable 1.2 mph - N/A   Partly Cloudy
9:30 AM 59.0 °F 57.2 °F 94% 29.95 in 6.2 mi Variable 1.2 mph - N/A   Partly Cloudy
10:00 AM 60.8 °F 59.0 °F 94% 29.95 in 6.2 mi Variable 2.3 mph - N/A   Partly Cloudy
10:30 AM 64.4 °F 60.8 °F 88% 29.95 in 6.2 mi Variable 1.2 mph - N/A   Partly Cloudy
11:00 AM 68.0 °F 60.8 °F 78% 29.95 in 6.2 mi Calm Calm - N/A   Partly Cloudy
11:30 AM 68.0 °F 60.8 °F 78% 29.95 in 6.2 mi South 3.5 mph - N/A   Partly Cloudy
12:00 PM 69.8 °F 60.8 °F 73% 29.95 in 6.2 mi SSW 3.5 mph - N/A   Partly Cloudy
12:30 PM 71.6 °F 60.8 °F 69% 29.95 in 6.2 mi SW 5.8 mph - N/A   Partly Cloudy
1:00 PM 73.4 °F 57.2 °F 57% 29.95 in 6.2 mi SW 8.1 mph - N/A   Partly Cloudy
1:30 PM 75.2 °F 55.4 °F 50% 29.92 in 6.2 mi WSW 8.1 mph - N/A   Scattered Clouds
2:00 PM 74 °F 58 °F 48% 29.93 in 37 mi WSW 10.4 mph - -   Partly Cloudy
2:00 PM 73.4 °F 57.2 °F 57% 29.92 in 6.2 mi West 10.4 mph - N/A   Scattered Clouds
2:30 PM 75.2 °F 53.6 °F 47% 29.92 in 6.2 mi West 8.1 mph - N/A   Scattered Clouds
3:00 PM 75.2 °F 50.0 °F 41% 29.89 in 6.2 mi WNW 8.1 mph - N/A   Scattered Clouds
3:30 PM 75.2 °F 51.8 °F 44% 29.89 in 6.2 mi West 8.1 mph - N/A   Scattered Clouds
4:00 PM 75.2 °F 50.0 °F 41% 29.89 in 6.2 mi West 10.4 mph - N/A   Scattered Clouds
4:30 PM 75.2 °F 50.0 °F 41% 29.89 in 6.2 mi West 12.7 mph - N/A   Scattered Clouds
5:00 PM 75.2 °F 50.0 °F 41% 29.86 in 6.2 mi West 12.7 mph - N/A   Scattered Clouds
5:30 PM 75.2 °F 50.0 °F 41% 29.86 in 6.2 mi WSW 12.7 mph - N/A   Partly Cloudy
6:00 PM 75.2 °F 51.8 °F 44% 29.86 in 6.2 mi WSW 13.8 mph - N/A   Partly Cloudy
6:30 PM 73.4 °F 53.6 °F 50% 29.86 in 6.2 mi WSW 15.0 mph - N/A   Partly Cloudy
7:00 PM 71.6 °F 55.4 °F 57% 29.86 in 6.2 mi West 15.0 mph - N/A   Partly Cloudy
7:30 PM 69.8 °F 57.2 °F 64% 29.86 in 6.2 mi West 13.8 mph - N/A   Partly Cloudy
8:00 PM 69 °F 59 °F 63% 29.87 in 37 mi WSW 12.7 mph - -   Scattered Clouds
8:00 PM 69.8 °F 57.2 °F 64% 29.86 in 6.2 mi WSW 11.5 mph - N/A   Partly Cloudy
8:30 PM 68.0 °F 59.0 °F 73% 29.86 in 6.2 mi WSW 11.5 mph - N/A   Partly Cloudy
9:00 PM 68.0 °F 59.0 °F 73% 29.86 in 6.2 mi WSW 10.4 mph - N/A   Partly Cloudy
9:30 PM 68.0 °F 62.6 °F 83% 29.89 in 6.2 mi West 10.4 mph - N/A   Partly Cloudy
10:00 PM 69.8 °F 62.6 °F 78% 29.89 in 6.2 mi West 11.5 mph - N/A   Scattered Clouds
10:30 PM 69.8 °F 62.6 °F 78% 29.86 in 6.2 mi West 11.5 mph - N/A   Scattered Clouds
11:00 PM 68.0 °F 64.4 °F 88% 29.86 in 6.2 mi WSW 10.4 mph - N/A   Scattered Clouds